Regional Weather Roundup
Issued by NWS Green Bay, WI

Home | Current Version | Previous Version | Graphics & Text | Print | Product List | Glossary Off
Versions: 1 2 3 4 5 6 7 8 9 10 11 12 13 14 15 16 17 18 19 20 21 22 23 24 25 26 27 28 29 30 31 32 33 34 35 36 37 38 39 40 41 42 43 44 45 46 47 48 49 50

000
ASUS43 KGRB 011611
RWRGRB

NORTH-CENTRAL AND NORTHEAST WISCONSIN REGIONAL WEATHER ROUNDUP
NATIONAL WEATHER SERVICE GREEN BAY WI
1100 AM CDT SAT OCT 01 2016

WIZ005-009-010>012-018-019-011700-
NORTH CENTRAL WISCONSIN

CITY           SKY/WX    TMP DP  RH WIND       PRES   REMARKS
IRONWOOD       CLOUDY    58  54  86 CALM      30.22F
MANITOWISH WTR LGT RAIN  56  55  95 NE6       30.20F
ARBOR VITAE    CLOUDY    58  54  85 N3        30.20S
EAGLE RIVER    MOSUNNY   58  51  80 N5        30.20S
LAND O LAKES   CLOUDY    58  53  84 NE5       30.22S
RHINELANDER    CLOUDY    59  52  77 E8        30.19F
PHILLIPS       CLOUDY    56  53  91 NE5       30.19F
ANTIGO         CLOUDY    60  53  77 NE13      30.16F
TOMAHAWK       CLOUDY    59  52  77 NE3       30.19F
MERRILL        LGT RAIN  58  55  89 NE6       30.18F
$$

WIZ013-073-011700-
NORTHEAST WISCONSIN

CITY           SKY/WX    TMP DP  RH WIND       PRES   REMARKS
IRON MOUNTAIN  CLOUDY    61  52  72 NE6       30.17F
MARINETTE      CLOUDY    61  57  87 NE16      30.13F
OCONTO         CLOUDY    60  57  89 NE6       30.11F
$$

WIZ017-030-035>037-045-011700-
CENTRAL WISCONSIN

CITY           SKY/WX    TMP DP  RH WIND       PRES   REMARKS
MEDFORD        CLOUDY    58  58 100 NE7       30.17S
WAUSAU         CLOUDY    60  54  80 N7        30.14F
MOSINEE        CLOUDY    59  57  94 N7        30.16F
MARSHFIELD     LGT RAIN  63  54  72 NE12      30.15S
WISC RAPIDS    CLOUDY    64  56  75 NE5       30.14F
STEVENS POINT  CLOUDY    60  54  82 NE10      30.14F
WAUPACA        CLOUDY    66  57  74 N9        30.12F
SHAWANO        PTSUNNY   65  58  77 NE10      30.13F
CLINTONVILLE   CLOUDY    61  54  77 NE9       30.12F
WAUTOMA        CLOUDY    62  56  80 NE10      30.11
$$

WIZ038-039-048-051-011700-
FOX VALLEY

CITY           SKY/WX    TMP DP  RH WIND       PRES   REMARKS
NWS GREEN BAY  PTSUNNY   64  59  83 NE13      30.09F
APPLETON       PTSUNNY   61  57  88 NE8       30.09F
OSHKOSH        CLOUDY    61  57  87 NE10      30.09S
FOND DU LAC    CLOUDY    60  57  89 N10       30.09S
$$

WIZ022-050-052-011700-
EAST CENTRAL WISCONSIN

CITY           SKY/WX    TMP DP  RH WIND       PRES   REMARKS
EPHRAIM        LGT RAIN  59  56  89 E9        30.12F
WASHINGTON ISL LGT RAIN  59  56  89 NE7       30.13F
STURGEON BAY   LGT RAIN  61  55  81 NE8       30.12S
MANITOWOC      CLOUDY    60  56  86 MISG      30.09F
SHEBOYGAN      CLOUDY    59  56  89 NE10      30.08S
$$

LMZ563-521-522-541>543-011700-
LAKESHORE

STATION/POSITION TIME  TEMP    WIND        PRES    VSBY  WAVE
                       AIR SEA DIR/SP/G                  HT/PER
                 (UTC) (F)     (DEG/KT/KT) (MB)    (MI)  (FT/S)
SHEBOYGAN LKSHOR 1600   59      60/ 14/ 16 1018.0F
KEWAUNEE LKSHORE 1500   62      50/  5/ 10 1018.9F
NORTHPORT PIER   1500   62      80/ 11/ 17 1020.7S
N MID LAKE BUOY  1550   60 64   80/ 16/ 17 1019.8F         4/ 5
S GREEN BAY BUOY 1600   62 62   70/ 17/ 21 1019.0F
CHAMBERS ISLAND  1500   62      50/ 10/ 14 1020.0F
MENOMINEE LKSHOR 1500   60      10/ 17/ 20 1019.6F
$$



USA.gov is the U.S. government's official web portal to all federal, state and local government web resources and services.